Location: Ferques
(50.8300°N, 1.7599°E)
Time: 19:34:10
(UTC+00:00)

Okean 1 - Pass Details

Date: 19 May 2025
Orbit: 478 x 498 km, 82.5° (Epoch: 22 June)

Event Time Altitude Azimuth Distance (km) Brightness Sun altitude
Exits shadow 21:43:49 23° 174° (S) 1,080 4.3 -14.0°
Maximum altitude 21:45:57 65° 98° (E) 543 3.1 -14.2°
Drops below altitude 10° 21:49:37 10° 16° (NNE) 1,684 6.5 -14.4°
Sets 21:51:43 0° 13° (NNE) 2,567 7.5 -14.6°
